Location: Sevilla
(37.3933°N, 5.9839°W)
Time: 04:45:30
(UTC+02:00)

Transit 2A - Pass Details

Date: 25 June 2024
Orbit: 591 x 960 km, 66.7° (Epoch: 15 July)

Event Time Altitude Azimuth Distance (km) Brightness Sun altitude
Rises 15:29:42 0° 175° (S) 2,954 9.2 70.5°
Reaches altitude 10° 15:32:13 10° 162° (SSE) 2,100 8.5 70.2°
Maximum altitude 15:36:07 25° 106° (ESE) 1,407 7.6 69.6°
Drops below altitude 10° 15:40:21 10° 52° (NE) 2,302 8.4 68.9°
Sets 15:43:13 0° 40° (NE) 3,305 9.1 68.4°
